Regional Weather Roundup
Issued by NWS Charleston, SC

Current Version | Previous Version | Text Only | Print | Product List | Glossary Off
Versions: 1 2 3 4 5 6 7 8 9 10 11 12 13 14 15 16 17 18 19 20 21 22 23 24 25 26 27 28 29 30 31 32 33 34 35 36 37 38 39 40 41 42 43 44 45 46 47 48 49 50

000
ASUS42 KCHS 171212
RWRCHS

Regional Weather Roundup
National Weather Service Charleston SC
700 AM EST WED JAN 17 2018

NOTE: "fair" indicates few or no clouds below 12,000 feet with no
significant weather and/or obstructions to visibility.

Not all stations are quality controlled. Use data with caution,
especially dewpoint observations.

SCZ027-030-031-034>040-042>050-171300-
...Southeast South Carolina...

CITY           SKY/WX    TMP DP  RH WIND       PRES   REMARKS
N Charleston   FAIR      34  32  92 N3        30.23S
6HR MIN TEMP:  33; 6HR MAX TEMP:  39;

Waterfront Prk NOT AVBL
Mount Pleasant FAIR      32  32 100 CALM      30.23F
Johns Island   FAIR      34  32  93 CALM      30.23S
Pinopolis        N/A     36  36 100 CALM      30.16S
Moncks Corner  FAIR      30  28  93 CALM      30.24R
Summerville    FAIR      32  32 100 CALM      30.26R
Beaufort MCAS  FAIR      37  36  96 CALM      30.25S
6HR MIN TEMP:  34; 6HR MAX TEMP:  39;

Beaufort Arpt  FAIR      36  34  93 CALM      30.25S
Hilton Head Is CLEAR     39  37  93 NW6       30.26  WCI  35
Walterboro     CLOUDY    32  32 100 CALM      30.25S
Allendale      CLOUDY    43  36  75 CALM      30.23S

...Southern Midlands and Pee Dee...

CITY           SKY/WX    TMP DP  RH WIND       PRES   REMARKS
Georgetown     FAIR      32  32 100 CALM      30.25S
Kingstree      CLOUDY    36  36 100 CALM      30.24R
Orangeburg     CLOUDY    42  34  73 NW3       30.24R
6HR MIN TEMP:  37; 6HR MAX TEMP:  42;

Barnwell         N/A     45  36  70 W8        30.25R
Aiken          CLOUDY    37  32  81 W13G18    30.28R WCI  29
Manning        CLOUDY    41  34  75 MISG      30.24R
Columbia       LGT RAIN  44  37  76 W8        30.24R
6HR MIN TEMP:  41; 6HR MAX TEMP:  45; 6HR PCP: TRACE;

Sumter         CLOUDY    42  33  72 CALM      30.21R
6HR MIN TEMP:  35; 6HR MAX TEMP:  42;

Florence       CLOUDY    39  34  82 VRB3      30.24R
6HR MIN TEMP:  34; 6HR MAX TEMP:  39;

Myrtle Beach   FAIR      32  29  88 N3        30.26R
N Myrtle Beach FAIR      33  31  92 NE3       30.24S
6HR MIN TEMP:  31; 6HR MAX TEMP:  34;


$$

GAZ063-065-086>088-099>101-113>116-118-119-134>141-150-171300-
...Southeast Georgia...

CITY           SKY/WX    TMP DP  RH WIND       PRES   REMARKS
Savannah Arpt  FAIR      35  34  96 S3        30.26R
6HR MIN TEMP:  33; 6HR MAX TEMP:  39;

Hunter AAF     FAIR      34  31  90 CALM      30.23R
6HR MIN TEMP:  33; 6HR MAX TEMP:  39; 6HR PCP: TRACE;

Fort Stewart   FAIR      33  32  93 CALM      30.24R
6HR MIN TEMP:  33; 6HR MAX TEMP:  38;

Statesboro     MOCLDY    43  35  73 NW9       30.25R
Sylvania       FAIR      43  39  86 NW6       30.25S
Claxton        CLOUDY    42  39  89 W8        30.27R

...CSRA, Central and far Southeast Georgia...

CITY           SKY/WX    TMP DP  RH WIND       PRES   REMARKS
Thomson        LGT SNOW  32  30  92 N9        30.33F FOG     WCI  24
Augusta-Bush   CLOUDY    39  30  70 NW12      30.27R WCI  32
6HR MIN TEMP:  39; 6HR MAX TEMP:  47; 6HR PCP: TRACE;

Augusta-Daniel CLOUDY    38  30  73 NW9       30.26S WCI  31
Swainsboro     CLOUDY    39  32  75 NW12      30.29R WCI  32
Vidalia        CLOUDY    43  36  75 NW7       30.27S
Eastman        CLOUDY    37  24  59 NW12G17   30.34R WCI  30
Hazlehurst     FAIR      42  32  67 NW6       30.26F
Alma           CLOUDY    44  37  76 NW8       30.26R
6HR MIN TEMP:  35; 6HR MAX TEMP:  44;

Waycross       CLOUDY    41  38  88 NW3       30.27S
Jesup          CLOUDY    37  34  87 CALM      30.27R
Baxley         CLOUDY    41  37  87 N5        30.26S
Brunswick      FAIR      37  37 100 CALM      30.27R
Saint Simons   FAIR      41  41 100 NW3       30.27R
6HR MIN TEMP:  36; 6HR MAX TEMP:  41; 6HR PCP: TRACE;


$$

SCZ027-028-034-036>038-045-046-048>050-GAZ119-141-171300-
...Lake and Supplemental Coastal Observations...

STATION/POSITION TIME  TEMP    WIND        PRES    WAVE   SWELL
                       AIR SEA DIR/SP/G            HT/PER HT/PER/DIR
                 (UTC) (F)     (DEG/KT/KT) (MB)    (FT/S) (FT/S/D)
Winyah Bay       1045   32     310/  1     1024.0
Lake Murray      1120   43     280/  6/  9 1023.0
ACE Basin NERRS  1045   34        CALM     1023.0
Fort Pulaski     1148   40 46  330/  4/  5 1024.7R
Sapelo Island    1100   39     330/  6     1024.0

$$

ANZ835-935-AMZ111-154-330-350-352-354-370-450-454-472-171300-
...C-MAN and Buoy Observations...

STATION/POSITION TIME  TEMP    WIND        PRES    WAVE   SWELL
                       AIR SEA DIR/SP/G            HT/PER HT/PER/DIR
                 (UTC) (F)     (DEG/KT/KT) (MB)    (FT/S) (FT/S/D)
Buoy 41004       1150   59 70  350/  2/  4 1023.3S   4/ 9   3/ 90/ 9
Buoy 41008       1150   51 52  320/  4/ 10 1023.6R   3/11   3/100/11
Folly Beach CMAN 1100   40     340/  4/  4 1024.1F
Capers Nearshore 1108   42 48   30/  6/  8 1023.4F
Fripp Nearshore  1108   43 47   90/  4/  6 1022.7R


STATION/POSITION TIME  TEMP    WIND        PRES    WAVE   SWELL
                       AIR SEA DIR/SP/G            HT/PER HT/PER/DIR
                 (UTC) (F)     (DEG/KT/KT) (MB)    (FT/S) (FT/S/D)
5E St. Marys GA  1130      50                N/A     3/11   2/100/11
Frying Pan Buoy  1150   56 65   20/  8/ 10 1023.8R   4/11   5/110/11
Buoy 41025       1150   49 71  360/ 16/ 17 1025.0S   7/11   7/ 90/11
Cape Lookout NC  1100          340/  6/  8 1024.7R
Buoy 41002       1050   68 70  120/ 10/ 14 1021.5    7/11   7/ 80/11
Buoy 41010       NOT AVBL
St Augustine FL  1200   48 51  290/  5/  6 1024.2R


$$




USA.gov is the U.S. government's official web portal to all federal, state and local government web resources and services.